EW2569 Weather Reports


time (UTC)temp
C
wind
direction
speed
KPH
gust
KPH
rain 1hr
cm
rain 24hr
cm
rain mn
cm
humidity
%
barometer
mb
20190419021018 11 0.0 3.2 0.00 0.00 0.00 68 1020.8
20190419020018 11 0.0 0.0 0.00 0.00 0.00 69 1020.8
20190419015019 11 0.0 0.0 0.00 0.00 0.00 69 1020.8
20190419014017 11 0.0 0.0 0.00 0.00 0.00 68 1020.8
20190419013018 11 0.0 0.0 0.00 0.00 0.00 66 1020.7
20190419012017 12 0.0 0.0 0.00 0.00 0.00 65 1020.5
20190419011018 12 0.0 0.0 0.00 0.00 0.00 64 1020.5
20190419010018 12 0.0 1.6 0.00 0.00 0.00 62 1020.5
20190419005018 13 0.0 0.0 0.00 0.00 0.00 60 1020.4
20190419004017 13 0.0 0.0 0.00 0.00 0.00 58 1020.4
20190419003018 14 0.0 0.0 0.00 0.00 0.00 56 1020.4
20190419002018 14 0.0 0.0 0.00 0.00 0.00 55 1020.3
20190419001018 15 0.0 1.6 0.00 0.00 0.00 54 1020.4
20190419000017 15 112 0.0 8.0 0.00 0.00 0.00 52 1020.3
20190418235016 15 112 4.8 12.9 0.00 0.00 0.00 51 1020.2
20190418234016 15 112 3.2 11.3 0.00 0.00 0.00 52 1020.2
20190418233041 15 90 4.8 14.5 0.00 0.00 0.00 52 1020.1
20190418232016 15 112 4.8 17.7 0.00 0.00 0.00 52 1020.0
20190418231017 15 112 3.2 14.5 0.00 0.00 0.00 53 1020.0
20190418230016 15 112 4.8 14.5 0.00 0.00 0.00 53 1020.0
20190418225016 15 135 4.8 17.7 0.00 0.00 0.00 52 1019.9
20190418224017 15 90 4.8 14.5 0.00 0.00 0.00 52 1019.9
20190418223016 15 112 3.2 16.1 0.00 0.00 0.00 52 1019.9
20190418222016 16 112 3.2 12.9 0.00 0.00 0.00 51 1019.9
20190418221017 16 112 6.4 16.1 0.00 0.00 0.00 51 1019.9
20190418220016 16 112 6.4 16.1 0.00 0.00 0.00 50 1019.9
20190418215016 16 135 4.8 14.5 0.00 0.00 0.00 50 1019.9
20190418214016 16 135 4.8 17.7 0.00 0.00 0.00 49 1019.8
20190418213016 16 112 4.8 14.5 0.00 0.00 0.00 49 1019.7
20190418212016 16 112 4.8 17.7 0.00 0.00 0.00 50 1019.6
20190418211016 16 112 4.8 12.9 0.00 0.00 0.00 50 1019.6
20190418210016 16 112 4.8 14.5 0.00 0.00 0.00 50 1019.6
20190418205016 16 112 3.2 14.5 0.00 0.00 0.00 50 1019.5
20190418204016 16 90 3.2 11.3 0.00 0.00 0.00 49 1019.4
20190418203016 16 90 3.2 16.1 0.00 0.00 0.00 50 1019.3
20190418202016 16 112 1.6 9.7 0.00 0.00 0.00 50 1019.2
20190418201016 16 112 1.6 9.7 0.00 0.00 0.00 49 1019.2
20190418200016 16 112 1.6 14.5 0.00 0.00 0.00 49 1019.1
20190418195016 16 247 0.0 3.2 0.00 0.00 0.00 50 1019.0
20190418194016 17 0.0 3.2 0.00 0.00 0.00 50 1019.0
20190418193016 17 247 0.0 6.4 0.00 0.00 0.00 50 1018.9
20190418192016 17 247 0.0 6.4 0.00 0.00 0.00 50 1018.9
20190418191016 18 270 1.6 8.0 0.00 0.00 0.00 50 1018.8
20190418190016 18 270 1.6 9.7 0.00 0.00 0.00 50 1018.7
20190418185016 19 270 0.0 3.2 0.00 0.00 0.00 51 1018.5
20190418184016 20 270 0.0 4.8 0.00 0.00 0.00 48 1018.4
20190418183016 21 0.0 0.0 0.00 0.00 0.00 45 1018.2
20190418182016 21 0.0 1.6 0.00 0.00 0.00 44 1018.2
20190418181016 21 0.0 1.6 0.00 0.00 0.00 41 1018.1
20190418180016 22 270 0.0 1.6 0.00 0.00 0.00 40 1018.0
20190418175016 22 0.0 0.0 0.00 0.00 0.00 41 1018.0
20190418174016 22 270 0.0 3.2 0.00 0.00 0.00 41 1017.9
20190418173016 22 270 1.6 4.8 0.00 0.00 0.00 40 1017.9
20190418172016 22 270 0.0 4.8 0.00 0.00 0.00 39 1017.8
20190418171016 22 270 0.0 4.8 0.00 0.00 0.00 39 1017.7
20190418170016 22 270 1.6 8.0 0.00 0.00 0.00 40 1017.7
20190418165018 22 270 1.6 8.0 0.00 0.00 0.00 40 1017.7
20190418164018 22 270 4.8 9.7 0.00 0.00 0.00 40 1017.6
20190418163018 22 270 8.0 11.3 0.00 0.00 0.00 39 1017.6
20190418162018 22 315 3.2 12.9 0.00 0.00 0.00 40 1017.7
20190418161018 23 315 3.2 11.3 0.00 0.00 0.00 40 1017.7
20190418160018 22 315 1.6 12.9 0.00 0.00 0.00 40 1017.7
20190418155018 23 292 3.2 12.9 0.00 0.00 0.00 40 1017.7
20190418154018 23 292 3.2 9.7 0.00 0.00 0.00 40 1017.8
20190418153018 23 337 3.2 11.3 0.00 0.00 0.00 39 1017.7
20190418152018 23 337 3.2 16.1 0.00 0.00 0.00 41 1017.8
20190418151018 23 337 3.2 11.3 0.00 0.00 0.00 39 1017.8
20190418150018 23 337 3.2 12.9 0.00 0.00 0.00 39 1017.9
20190418145018 23 315 4.8 12.9 0.00 0.00 0.00 39 1017.9
20190418144018 23 337 3.2 12.9 0.00 0.00 0.00 40 1017.9
20190418143018 23 337 3.2 11.3 0.00 0.00 0.00 39 1017.9
20190418142018 22 337 3.2 12.9 0.00 0.00 0.00 40 1018.0
20190418141018 22 337 1.6 11.3 0.00 0.00 0.00 41 1018.0
20190418140017 22 247 3.2 11.3 0.00 0.00 0.00 41 1018.1
20190418135017 22 0 1.6 11.3 0.00 0.00 0.00 41 1018.2
20190418134016 22 315 3.2 11.3 0.00 0.00 0.00 40 1018.3
20190418133017 21 0 0.0 11.3 0.00 0.00 0.00 41 1018.4
20190418132018 21 292 3.2 11.3 0.00 0.00 0.00 41 1018.4
20190418131017 22 337 3.2 12.9 0.00 0.00 0.00 41 1018.6
20190418130017 21 315 3.2 9.7 0.00 0.00 0.00 41 1018.7
20190418125017 21 315 6.4 14.5 0.00 0.00 0.00 40 1018.8
20190418124018 21 22 3.2 11.3 0.00 0.00 0.00 42 1018.8
20190418123017 21 22 4.8 12.9 0.00 0.00 0.00 41 1018.8
20190418122020 21 315 3.2 9.7 0.00 0.00 0.00 41 1018.8
20190418121018 21 45 3.2 11.3 0.00 0.00 0.00 42 1018.9
20190418120017 21 337 1.6 12.9 0.00 0.00 0.00 43 1018.9
20190418115017 20 337 1.6 8.0 0.00 0.00 0.00 42 1018.9
20190418114017 20 337 1.6 8.0 0.00 0.00 0.00 41 1019.0
20190418113018 20 0 0.0 4.8 0.00 0.00 0.00 43 1019.0
20190418112018 19 0.0 1.6 0.00 0.00 0.00 42 1019.2
20190418111017 18 337 0.0 6.4 0.00 0.00 0.00 44 1019.2
20190418110017 18 337 1.6 8.0 0.00 0.00 0.00 44 1019.3
20190418105016 18 337 3.2 8.0 0.00 0.00 0.00 45 1019.4
20190418104017 18 337 1.6 6.4 0.00 0.00 0.00 50 1019.4
20190418103017 18 337 1.6 6.4 0.00 0.00 0.00 47 1019.5
20190418102017 18 0.0 3.2 0.00 0.00 0.00 46 1019.7
20190418101017 18 337 1.6 8.0 0.00 0.00 0.00 46 1019.7
20190418100017 17 315 1.6 6.4 0.00 0.00 0.00 46 1019.8
20190418095017 18 315 1.6 8.0 0.00 0.00 0.00 47 1019.9
20190418094017 18 315 1.6 6.4 0.00 0.00 0.00 46 1020.0
20190418093017 17 270 1.6 12.9 0.00 0.00 0.00 48 1020.0
20190418092017 17 270 1.6 8.0 0.00 0.00 0.00 49 1020.1
20190418091017 16 270 1.6 8.0 0.00 0.00 0.00 50 1020.0
20190418090017 16 270 3.2 9.7 0.00 0.00 0.00 51 1020.1
20190418085016 15 247 1.6 6.4 0.00 0.00 0.00 56 1020.2
20190418084017 14 247 0.0 11.3 0.00 0.00 0.00 61 1020.2
20190418083017 13 225 1.6 6.4 0.00 0.00 0.00 64 1020.2
20190418082017 12 247 0.0 4.8 0.00 0.00 0.00 66 1020.2
20190418081017 12 247 1.6 8.0 0.00 0.00 0.00 66 1020.2
20190418080018 12 202 1.6 6.4 0.00 0.00 0.00 68 1020.1
20190418075017 12 202 0.0 8.0 0.00 0.00 0.00 69 1020.1
20190418074017 11 202 0.0 6.4 0.00 0.00 0.00 69 1020.1
20190418073017 11 202 0.0 8.0 0.00 0.00 0.00 70 1019.9
20190418072017 11 180 1.6 8.0 0.00 0.00 0.00 71 1019.8
20190418071017 10 180 0.0 8.0 0.00 0.00 0.00 74 1019.9
20190418070017 10 180 1.6 8.0 0.00 0.00 0.00 73 1019.8
20190418065017 10 157 0.0 4.8 0.00 0.00 0.00 75 1019.9
20190418064017 9 157 0.0 4.8 0.00 0.00 0.00 77 1019.8
20190418063017 9 0.0 0.0 0.00 0.00 0.00 80 1019.8
20190418062017 8 0.0 0.0 0.00 0.00 0.00 81 1019.7
20190418061017 8 0.0 1.6 0.00 0.00 0.00 82 1019.7
20190418060018 7 0.0 1.6 0.00 0.00 0.00 82 1019.7
20190418055017 7 0.0 0.0 0.00 0.00 0.00 81 1019.5
20190418054017 7 0.0 0.0 0.00 0.00 0.00 80 1019.4
20190418053017 7 0.0 0.0 0.00 0.00 0.00 79 1019.4
20190418052017 6 0.0 0.0 0.00 0.00 0.00 78 1019.4
20190418051017 6 0.0 1.6 0.00 0.00 0.00 76 1019.2
20190418050017 6 157 0.0 6.4 0.00 0.00 0.00 75 1019.0
20190418045017 6 0.0 4.8 0.00 0.00 0.00 75 1018.9
20190418044017 6 0.0 0.0 0.00 0.00 0.00 76 1018.9
20190418043017 6 0.0 0.0 0.00 0.00 0.00 76 1018.8
20190418042017 6 0.0 0.0 0.00 0.00 0.00 78 1018.7
20190418041017 6 0.0 1.6 0.00 0.00 0.00 79 1018.7
20190418040019 6 157 0.0 1.6 0.00 0.00 0.00 80 1018.6
20190418035017 6 0.0 4.8 0.00 0.00 0.00 81 1018.6
20190418034017 7 0.0 0.0 0.00 0.00 0.00 84 1018.7
20190418033017 7 0.0 0.0 0.00 0.00 0.00 84 1018.7
20190418032017 7 0.0 0.0 0.00 0.00 0.00 84 1018.6
20190418031017 7 0.0 0.0 0.00 0.00 0.00 83 1018.7
20190418030017 8 0.0 0.0 0.00 0.00 0.00 83 1018.6
20190418025017 8 0.0 0.0 0.00 0.00 0.00 83 1018.6
20190418024017 8 0.0 0.0 0.00 0.00 0.00 82 1018.6
20190418023017 8 0.0 0.0 0.00 0.00 0.00 81 1018.5
20190418022016 8 0.0 0.0 0.00 0.00 0.00 82 1018.4